Latest Weather Observations for Mildura

IDV60801

Issued at 11:35 pm EDT Monday 20 October 2014 (issued every 30 minutes, with the page automatically refreshed every 10 minutes)

About weather observations | Map of weather stations | Latest weather observations for VIC | Other Formats
Station Details ID: 076031 Name: MILDURA AIRPORT Lat: -34.24 Lon: 142.09 Height: 50.0 m
Data from the previous 72 hours. | See also: Recent months at Mildura
Date/Time
EDT
Temp
°C
App
Temp
°C
Dew
Point
Rel
Hum
%
Delta-T
°C
Wind Press
QNH
hPa
Press
MSL
hPa
Rain
since 9 am
mm
Dir
 
Spd
km/h
Gust
km/h
Spd
kts
Gust
kts
20/11:00pm 21.7 17.9 1.5 26 9.3 SSE 11 15 6 8 1022.9 1022.8 0.0
20/10:30pm 22.3 18.1 1.9 26 9.5 SE 13 17 7 9 1022.8 1022.7 0.0
20/10:00pm 22.6 18.5 2.5 26 9.5 SE 13 17 7 9 1022.9 1022.8 0.0
20/09:30pm 23.3 19.2 2.1 25 10.0 SSE 13 15 7 8 1022.9 1022.8 0.0
20/08:30pm 24.5 20.6 3.4 25 10.3 SE 13 15 7 8 1022.0 1021.9 0.0
20/08:00pm 26.0 21.9 2.1 21 11.5 SE 13 17 7 9 1021.8 1021.7 0.0
20/07:30pm 27.4 24.0 1.7 19 12.4 SSE 9 13 5 7 1021.5 1021.4 0.0
20/07:00pm 28.6 24.3 1.3 17 13.2 SE 13 17 7 9 1021.3 1021.2 0.0
20/06:30pm 29.4 23.9 0.7 15 13.8 SE 19 24 10 13 1021.3 1021.2 0.0
20/06:00pm 29.7 24.6 0.6 15 14.0 SE 17 20 9 11 1021.3 1021.2 0.0
20/05:30pm 29.6 24.6 1.6 16 13.7 SE 17 22 9 12 1021.4 1021.3 0.0
20/05:00pm 30.0 25.0 1.3 16 14.0 SE 17 26 9 14 1021.4 1021.3 0.0
20/04:00pm 29.5 25.2 3.2 18 13.2 SE 15 24 8 13 1021.9 1021.8 0.0
20/03:30pm 29.5 25.0 4.3 20 12.9 SE 17 24 9 13 1022.2 1022.1 0.0
20/03:00pm 28.7 24.7 5.1 22 12.2 SSE 15 22 8 12 1022.6 1022.5 0.0
20/02:30pm 28.5 24.5 4.7 22 12.2 SE 15 20 8 11 1023.0 1022.9 0.0
20/02:00pm 27.8 24.2 4.9 23 11.7 ESE 13 22 7 12 1023.4 1023.3 0.0
20/01:30pm 27.3 23.5 5.6 25 11.2 SSE 15 24 8 13 1023.7 1023.6 0.0
20/01:00pm 27.0 23.7 6.6 27 10.7 SE 13 20 7 11 1024.1 1024.0 0.0
20/12:00pm 23.8 20.7 7.3 34 8.6 SE 13 20 7 11 1024.8 1024.7 0.0
20/11:30am 22.8 19.3 7.1 36 8.1 SE 15 22 8 12 1025.3 1025.2 0.0
20/11:00am 21.3 17.4 7.0 39 7.3 SE 17 26 9 14 1025.7 1025.6 0.0
20/10:30am 20.6 16.3 7.0 41 6.9 SE 19 24 10 13 1025.7 1025.6 0.0
20/10:00am 19.3 15.1 7.5 46 6.0 SE 19 28 10 15 1025.7 1025.6 0.0
20/09:30am 17.9 13.2 7.8 51 5.1 SE 22 30 12 16 1025.7 1025.6 0.0
20/09:00am 16.9 12.3 8.0 55 4.5 SE 22 33 12 18 1025.4 1025.3 0.0
20/08:30am 15.8 11.3 8.5 62 3.7 SE 22 32 12 17 1025.2 1025.1 0.0
20/08:00am 14.9 11.5 9.0 68 3.0 SE 17 20 9 11 1024.9 1024.8 0.0
20/07:30am 14.2 11.1 8.9 70 2.7 SE 15 22 8 12 1024.5 1024.4 0.0
20/07:00am 14.2 10.7 8.6 69 2.8 SE 17 24 9 13 1024.1 1024.0 0.0
20/06:30am 14.2 11.0 8.6 69 2.8 SE 15 24 8 13 1023.8 1023.7 0.0
20/06:00am 14.4 11.2 8.6 68 2.9 SE 15 20 8 11 1023.5 1023.4 0.0
20/05:30am 14.8 11.2 8.4 65 3.2 SSE 17 24 9 13 1023.2 1023.1 0.0
20/05:00am 15.3 11.8 8.6 64 3.4 SSE 17 26 9 14 1022.8 1022.7 0.0
20/04:30am 15.7 11.8 8.6 62 3.6 SSE 19 28 10 15 1022.4 1022.3 0.0
20/04:00am 16.5 12.6 8.7 60 4.0 SSE 19 26 10 14 1022.4 1022.3 0.0
20/03:30am 17.4 13.9 8.9 57 4.4 SSE 17 22 9 12 1022.3 1022.2 0.0
20/03:00am 18.5 15.0 8.9 53 5.0 SSE 17 26 9 14 1022.3 1022.2 0.0
20/02:30am 19.4 16.4 9.1 51 5.4 SSE 15 20 8 11 1022.1 1022.0 0.0
20/02:00am 20.2 17.2 9.2 49 5.8 SSE 15 22 8 12 1022.1 1022.0 0.0
20/01:30am 21.0 17.8 8.6 45 6.5 SSE 15 19 8 10 1022.2 1022.1 0.0
20/01:00am 21.4 17.5 5.5 35 7.9 SSE 15 20 8 11 1022.4 1022.3 0.0
20/12:30am 22.4 17.5 2.1 26 9.5 SSE 17 24 9 13 1022.3 1022.2 0.0
20/12:09am 23.3 17.8 -1.8 18 11.0 SSE 17 24 9 13 1022.2 1022.1 0.0
20/12:00am 23.7 17.7 -2.7 17 11.4 SSE 19 28 10 15 1022.1 1022.0 0.0
 
Date/Time
EDT
Temp
°C
App
Temp
°C
Dew
Point
Rel
Hum
%
Delta-T
°C
Wind Press
QNH
hPa
Press
MSL
hPa
Rain
since 9 am
mm
Dir
 
Spd
km/h
Gust
km/h
Spd
kts
Gust
kts
19/11:51pm 24.3 18.3 -3.1 16 11.8 SSE 19 26 10 14 1022.1 1022.0 0.0
19/11:30pm 24.4 19.5 -3.8 15 12.0 S 13 22 7 12 1022.1 1022.0 0.0
19/11:00pm 25.5 20.5 -4.3 13 12.7 S 13 19 7 10 1021.7 1021.6 0.0
19/10:30pm 26.0 21.0 -4.0 13 12.9 S 13 20 7 11 1021.7 1021.6 0.0
19/10:00pm 26.7 21.7 -4.6 12 13.4 S 13 22 7 12 1021.4 1021.3 0.0
19/09:30pm 24.2 20.7 -1.4 18 11.4 W 7 9 4 5 1021.0 1020.9 0.0
19/09:00pm 24.5 22.3 1.3 22 10.9 W 2 7 1 4 1020.5 1020.4 0.0
19/08:30pm 26.1 24.0 4.1 24 11.0 W 4 6 2 3 1020.1 1020.0 0.0
19/08:22pm 26.3 23.9 4.1 24 11.1 W 6 7 3 4 1020.1 1020.0 0.0
19/08:04pm 27.2 24.1 1.3 18 12.4 W 7 9 4 5 1020.0 1019.9 0.0
19/08:00pm 27.6 24.3 0.2 17 12.9 WSW 7 9 4 5 1019.9 1019.8 0.0
19/07:30pm 30.7 27.2 -1.7 12 15.1 W 7 11 4 6 1019.5 1019.4 0.0
19/07:00pm 32.8 27.5 -6.8 7 17.2 W 13 17 7 9 1019.3 1019.2 0.0
19/06:30pm 33.9 28.4 -9.5 5 18.2 W 13 20 7 11 1019.0 1018.9 0.0
19/06:00pm 34.2 27.0 -14.7 4 18.9 W 20 24 11 13 1018.9 1018.8 0.0
19/05:30pm 34.3 28.9 -14.0 4 18.9 NNW 11 17 6 9 1018.7 1018.6 0.0
19/05:00pm 34.0 27.8 -14.8 4 18.8 N 15 30 8 16 1018.7 1018.6 0.0
19/04:30pm 33.8 27.1 -16.3 3 18.8 NNW 17 28 9 15 1019.0 1018.9 0.0
19/04:00pm 33.7 27.1 -15.8 3 18.7 NNW 17 24 9 13 1019.3 1019.2 0.0
19/03:30pm 34.1 28.0 -12.1 4 18.6 NW 15 22 8 12 1019.5 1019.4 0.0
19/03:00pm 33.6 28.0 -11.1 5 18.2 NNW 13 17 7 9 1019.9 1019.8 0.0
19/02:30pm 33.3 26.4 -10.9 5 18.0 NNW 20 33 11 18 1020.3 1020.2 0.0
19/02:00pm 33.7 27.4 -10.6 5 18.2 NNW 17 24 9 13 1020.7 1020.6 0.0
19/01:30pm 32.5 25.5 -11.4 5 17.6 NW 20 28 11 15 1021.2 1021.1 0.0
19/01:00pm 32.1 25.3 -11.7 5 17.4 NNW 19 32 10 17 1021.5 1021.4 0.0
19/12:30pm 31.3 24.6 -10.4 6 16.9 NNW 19 28 10 15 1021.7 1021.6 0.0
19/12:00pm 31.9 24.7 -10.1 6 17.1 NW 22 37 12 20 1022.1 1022.0 0.0
19/11:30am 30.4 23.5 -10.4 6 16.4 NNW 20 30 11 16 1022.4 1022.3 0.0
19/11:00am 29.5 23.0 -7.4 8 15.4 NNW 19 28 10 15 1022.5 1022.4 0.0
19/10:30am 28.6 21.1 -8.8 8 15.2 N 24 35 13 19 1022.5 1022.4 0.0
19/10:00am 27.2 20.2 -7.2 10 14.1 N 22 32 12 17 1022.4 1022.3 0.0
19/09:30am 25.5 19.0 -5.5 12 13.0 N 20 30 11 16 1022.2 1022.1 0.0
19/09:00am 22.6 17.2 -4.5 16 11.2 N 15 20 8 11 1022.4 1022.3 0.0
19/08:30am 19.9 15.0 -3.5 20 9.6 N 13 17 7 9 1022.5 1022.4 0.0
19/08:00am 16.0 12.5 1.1 36 6.5 NNE 9 11 5 6 1022.3 1022.2 0.0
19/07:30am 15.2 12.1 0.4 36 6.3 NNE 6 7 3 4 1022.2 1022.1 0.0
19/07:00am 14.0 11.0 0.5 39 5.7 N 6 7 3 4 1021.8 1021.7 0.0
19/06:30am 14.0 12.0 -0.2 37 5.9 CALM 0 6 0 3 1021.4 1021.3 0.0
19/06:00am 14.7 10.4 -1.5 33 6.6 NNE 11 13 6 7 1021.0 1020.9 0.0
19/05:30am 15.2 10.9 -1.8 31 6.9 NNE 11 13 6 7 1021.0 1020.9 0.0
19/05:00am 16.4 12.4 -1.9 28 7.5 NNE 9 13 5 7 1020.8 1020.7 0.0
19/04:30am 15.6 12.0 0.4 35 6.5 NNE 9 11 5 6 1020.8 1020.7 0.0
19/04:00am 15.6 12.0 0.4 35 6.5 NNE 9 11 5 6 1020.8 1020.7 0.0
19/03:30am 16.7 12.8 -1.3 29 7.5 N 9 11 5 6 1020.9 1020.8 0.0
19/03:00am 16.2 11.4 -2.7 27 7.6 NNE 13 13 7 7 1021.0 1020.9 0.0
19/02:30am 16.4 12.1 -1.5 29 7.4 NNE 11 11 6 6 1021.1 1021.0 0.0
19/02:00am 16.2 12.6 0.7 35 6.7 NNE 9 9 5 5 1021.3 1021.2 0.0
19/01:30am 16.0 11.9 0.0 33 6.8 NNE 11 13 6 7 1021.4 1021.3 0.0
19/01:00am 16.7 12.5 -0.9 30 7.4 NNE 11 11 6 6 1021.7 1021.6 0.0
19/12:30am 17.4 13.3 -0.4 30 7.6 NNE 11 11 6 6 1022.1 1022.0 0.0
19/12:00am 17.2 14.5 3.9 41 6.2 ENE 7 9 4 5 1022.0 1021.9 0.0
 
Date/Time
EDT
Temp
°C
App
Temp
°C
Dew
Point
Rel
Hum
%
Delta-T
°C
Wind Press
QNH
hPa
Press
MSL
hPa
Rain
since 9 am
mm
Dir
 
Spd
km/h
Gust
km/h
Spd
kts
Gust
kts
18/11:30pm 18.7 15.7 2.0 32 7.6 NE 7 7 4 4 1022.0 1021.9 0.0
18/11:00pm 19.1 16.6 4.8 39 6.9 NNE 7 7 4 4 1022.1 1022.0 0.0
18/10:30pm 20.0 16.6 1.9 30 8.3 NNE 9 11 5 6 1022.1 1022.0 0.0
18/10:00pm 20.3 16.0 -1.3 23 9.3 NNE 11 13 6 7 1022.3 1022.2 0.0
18/09:30pm 20.3 17.4 1.4 28 8.6 NE 6 7 3 4 1022.4 1022.3 0.0
18/09:00pm 20.9 17.8 1.4 27 8.9 NNE 7 9 4 5 1022.3 1022.2 0.0
18/08:30pm 23.3 20.1 1.0 23 10.3 NNW 7 9 4 5 1022.1 1022.0 0.0
18/08:00pm 25.7 21.9 -3.8 14 12.7 NNW 7 9 4 5 1021.6 1021.5 0.0
18/07:30pm 27.7 23.6 -6.7 10 14.3 N 7 11 4 6 1021.3 1021.2 0.0
18/07:00pm 28.7 23.6 -9.1 8 15.2 NNW 11 17 6 9 1021.0 1020.9 0.0
18/06:30pm 29.4 24.0 -8.4 8 15.5 N 13 20 7 11 1020.6 1020.5 0.0
18/06:00pm 29.8 24.0 -9.0 7 15.8 N 15 26 8 14 1020.5 1020.4 0.0
18/05:30pm 30.3 23.5 -9.9 7 16.2 NNE 20 26 11 14 1020.3 1020.2 0.0
18/05:00pm 30.1 24.1 -10.9 6 16.2 N 15 24 8 13 1020.2 1020.1 0.0
18/04:30pm 30.2 25.1 -9.6 7 16.1 N 11 24 6 13 1020.4 1020.3 0.0
18/04:00pm 29.8 24.2 -10.6 6 16.0 N 13 28 7 15 1020.9 1020.8 0.0
18/03:30pm 30.4 24.2 -8.8 7 16.1 NNE 17 33 9 18 1021.2 1021.1 0.0
18/03:00pm 29.5 23.7 -8.8 7 15.6 NNE 15 26 8 14 1021.7 1021.6 0.0
18/02:30pm 28.8 23.5 -7.3 9 15.0 NE 13 30 7 16 1022.3 1022.2 0.0
18/02:00pm 28.6 24.3 -4.4 11 14.4 N 9 13 5 7 1022.7 1022.6 0.0
18/01:30pm 27.7 22.8 -6.7 10 14.3 E 11 13 6 7 1023.1 1023.0 0.0
18/01:00pm 27.1 21.3 -5.1 11 13.7 N 17 28 9 15 1023.7 1023.6 0.0
18/12:30pm 26.8 21.8 -4.4 12 13.5 N 13 19 7 10 1024.4 1024.3 0.0
18/12:00pm 26.9 21.5 -4.7 12 13.5 NNW 15 24 8 13 1024.9 1024.8 0.0
18/11:30am 26.0 19.7 -6.3 11 13.4 N 19 24 10 13 1025.2 1025.1 0.0
18/11:00am 25.1 19.2 -5.6 12 12.7 N 17 24 9 13 1025.3 1025.2 0.0
18/10:30am 24.4 18.5 -6.0 13 12.5 N 17 24 9 13 1025.5 1025.4 0.0
18/10:00am 22.4 15.8 -6.8 13 11.5 NNE 20 26 11 14 1025.4 1025.3 0.0
18/09:30am 20.7 13.7 -7.2 14 10.8 NNE 22 28 12 15 1025.2 1025.1 0.0
18/09:00am 18.8 12.5 -5.7 18 9.5 NNE 19 26 10 14 1025.2 1025.1 0.0
18/08:30am 16.9 10.7 -5.3 21 8.5 NNE 19 24 10 13 1025.1 1025.0 0.0
18/08:00am 14.9 9.6 -3.6 27 7.2 NE 15 20 8 11 1024.7 1024.6 0.0
18/07:30am 12.9 8.4 -2.9 33 6.1 NE 11 13 6 7 1024.7 1024.6 0.0
18/07:00am 11.1 6.7 -2.5 38 5.2 NE 11 13 6 7 1024.2 1024.1 0.0
18/06:30am 10.5 6.1 -2.7 39 5.0 NE 11 15 6 8 1023.8 1023.7 0.0
18/06:00am 10.3 5.6 -1.6 43 4.6 NNE 13 15 7 8 1023.6 1023.5 0.0
18/05:30am 10.7 6.4 -1.3 43 4.7 NE 11 13 6 7 1023.5 1023.4 0.0
18/05:00am 11.4 7.1 -2.0 39 5.2 NE 11 13 6 7 1023.3 1023.2 0.0
18/04:30am 12.7 8.3 -2.4 35 5.9 ENE 11 15 6 8 1023.5 1023.4 0.0
18/04:00am 13.1 9.1 -2.5 34 6.1 NE 9 11 5 6 1023.4 1023.3 0.0
18/03:30am 12.7 9.3 -0.6 40 5.4 ENE 7 9 4 5 1023.5 1023.4 0.0
18/03:00am 13.9 9.9 -2.2 33 6.4 ENE 9 13 5 7 1023.2 1023.1 0.0
18/02:30am 14.7 9.9 -2.7 30 6.9 ENE 13 19 7 10 1023.3 1023.2 0.0
18/02:00am 13.8 9.5 -1.6 34 6.2 E 11 13 6 7 1023.6 1023.5 0.0
18/01:30am 13.9 10.0 -1.5 34 6.2 ENE 9 11 5 6 1023.8 1023.7 0.0
18/01:00am 14.3 10.6 -0.1 37 6.0 ENE 9 11 5 6 1023.9 1023.8 0.0
18/12:30am 14.8 10.6 -0.6 35 6.4 E 11 13 6 7 1023.9 1023.8 0.0
18/12:00am 15.0 11.3 -0.3 35 6.4 E 9 13 5 7 1024.1 1024.0 0.0

Other Formats:

Comma delimited format used in spreadsheet applications
http://www.bom.gov.au/fwo/IDV60801/IDV60801.94693.axf

JavaScript Object Notation format (JSON) in row-major order
http://www.bom.gov.au/fwo/IDV60801/IDV60801.94693.json